When you browse on this site, cookies collect data to enhance your experience and personalize the content and advertising you see.
Visit our Privacy Policy to learn more. By continuing to use the site, you agree to this use of cookies and data.
  • In Deutschland
  • Länderverzeichnis
  • Für 7 Tage
  • Wassertemperatur
  • Wetterkarte
  • Widgets
  • user-avatar
    Anmelden

    Stündliche Wetter Aachen

    Heute, 20 August, Dienstag

    Zeit Temperatur Niederschläge Wind Luftdruck Luftfeuchtigkeit
    00:00 +12°C° 0 mm 3 m/S 749 mmHg 83%
    01:00 +12°C° 0 mm 3 m/S 749 mmHg 84%
    02:00 +11°C° 0 mm 3 m/S 750 mmHg 84%
    03:00 +11°C° 0 mm 3 m/S 750 mmHg 85%
    04:00 +11°C° 0 mm 3 m/S 750 mmHg 83%
    05:00 +13°C° 0 mm 2 m/S 750 mmHg 82%
    06:00 +13°C° 0 mm 2 m/S 750 mmHg 80%
    07:00 +15°C° 0 mm 2 m/S 750 mmHg 74%
    08:00 +16°C° 0 mm 3 m/S 751 mmHg 67%
    09:00 +18°C° 0 mm 3 m/S 751 mmHg 61%
    10:00 +19°C° 0 mm 3 m/S 751 mmHg 58%
    11:00 +20°C° 0 mm 3 m/S 751 mmHg 55%
    12:00 +21°C° 0 mm 3 m/S 751 mmHg 53%
    13:00 +21°C° 0 mm 3 m/S 751 mmHg 53%
    14:00 +21°C° 0 mm 3 m/S 751 mmHg 53%
    15:00 +21°C° 0 mm 3 m/S 751 mmHg 53%
    16:00 +20°C° 0.1 mm 3 m/S 751 mmHg 60%
    17:00 +19°C° 0.1 mm 2 m/S 751 mmHg 68%
    18:00 +17°C° 0.1 mm 2 m/S 752 mmHg 75%
    19:00 +16°C° 0 mm 2 m/S 752 mmHg 78%
    20:00 +15°C° 0 mm 1 m/S 752 mmHg 82%
    21:00 +14°C° 0 mm 1 m/S 753 mmHg 85%
    22:00 +13°C° 0 mm 1 m/S 753 mmHg 85%
    23:00 +13°C° 0 mm 1 m/S 753 mmHg 86%

    Morgen, 21 August, Mittwoch

    Zeit Temperatur Niederschläge Wind Luftdruck Luftfeuchtigkeit
    00:00 +12°C° 0 mm 1 m/S 754 mmHg 86%
    01:00 +12°C° 0 mm 1 m/S 754 mmHg 86%
    02:00 +12°C° 0 mm 1 m/S 754 mmHg 87%
    03:00 +11°C° 0 mm 1 m/S 754 mmHg 88%
    04:00 +12°C° 0 mm 1 m/S 754 mmHg 86%
    05:00 +13°C° 0 mm 1 m/S 754 mmHg 84%
    06:00 +14°C° 0 mm 1 m/S 754 mmHg 82%
    07:00 +15°C° 0 mm 1 m/S 754 mmHg 74%
    08:00 +18°C° 0 mm 1 m/S 755 mmHg 66%
    09:00 +20°C° 0 mm 1 m/S 755 mmHg 58%
    10:00 +21°C° 0 mm 1 m/S 754 mmHg 54%
    11:00 +22°C° 0 mm 1 m/S 754 mmHg 50%
    12:00 +23°C° 0 mm 1 m/S 754 mmHg 45%
    13:00 +23°C° 0 mm 1 m/S 754 mmHg 45%
    14:00 +23°C° 0 mm 1 m/S 753 mmHg 45%
    15:00 +23°C° 0 mm 1 m/S 753 mmHg 45%
    16:00 +22°C° 0 mm 1 m/S 753 mmHg 52%
    17:00 +21°C° 0 mm 1 m/S 753 mmHg 58%
    18:00 +20°C° 0 mm 1 m/S 753 mmHg 64%
    19:00 +18°C° 0 mm 1 m/S 753 mmHg 66%
    20:00 +16°C° 0 mm 1 m/S 753 mmHg 67%
    21:00 +15°C° 0 mm 1 m/S 753 mmHg 69%
    22:00 +14°C° 0 mm 1 m/S 753 mmHg 70%
    23:00 +14°C° 0 mm 1 m/S 753 mmHg 71%

    übermorgen, 22 August, Donnerstag

    Zeit Temperatur Niederschläge Wind Luftdruck Luftfeuchtigkeit
    00:00 +14°C° 0 mm 1 m/S 753 mmHg 71%
    01:00 +14°C° 0 mm 1 m/S 753 mmHg 72%
    02:00 +14°C° 0 mm 1 m/S 753 mmHg 73%
    03:00 +14°C° 0 mm 1 m/S 752 mmHg 74%
    04:00 +14°C° 0 mm 1 m/S 753 mmHg 74%
    05:00 +15°C° 0 mm 1 m/S 753 mmHg 75%
    06:00 +15°C° 0 mm 1 m/S 753 mmHg 75%
    07:00 +18°C° 0 mm 1 m/S 753 mmHg 69%
    08:00 +20°C° 0 mm 1 m/S 753 mmHg 62%
    09:00 +22°C° 0 mm 1 m/S 753 mmHg 56%
    10:00 +23°C° 0 mm 2 m/S 753 mmHg 53%
    11:00 +24°C° 0 mm 2 m/S 753 mmHg 50%
    12:00 +25°C° 0 mm 2 m/S 753 mmHg 47%
    13:00 +25°C° 0 mm 2 m/S 753 mmHg 47%
    14:00 +25°C° 0 mm 2 m/S 753 mmHg 46%
    15:00 +25°C° 0 mm 2 m/S 752 mmHg 45%
    16:00 +24°C° 0 mm 2 m/S 752 mmHg 50%
    17:00 +21°C° 0 mm 2 m/S 752 mmHg 55%
    18:00 +20°C° 0 mm 2 m/S 753 mmHg 60%
    19:00 +19°C° 0 mm 1 m/S 753 mmHg 63%
    20:00 +18°C° 0 mm 1 m/S 753 mmHg 66%
    21:00 +16°C° 0 mm 1 m/S 754 mmHg 68%
    22:00 +15°C° 0 mm 1 m/S 753 mmHg 70%
    23:00 +15°C° 0 mm 1 m/S 753 mmHg 71%

    23 August, Freitag

    Zeit Temperatur Niederschläge Wind Luftdruck Luftfeuchtigkeit
    00:00 +15°C° 0 mm 1 m/S 753 mmHg 72%
    01:00 +13°C° 0 mm 0 m/S 753 mmHg 73%
    02:00 +13°C° 0 mm 0 m/S 753 mmHg 75%
    03:00 +13°C° 0 mm 0 m/S 753 mmHg 76%
    04:00 +15°C° 0 mm 1 m/S 753 mmHg 75%
    05:00 +15°C° 0 mm 1 m/S 753 mmHg 75%
    06:00 +16°C° 0 mm 1 m/S 753 mmHg 74%
    07:00 +19°C° 0 mm 1 m/S 753 mmHg 68%
    08:00 +21°C° 0 mm 1 m/S 753 mmHg 61%
    09:00 +24°C° 0 mm 2 m/S 753 mmHg 55%
    10:00 +25°C° 0 mm 2 m/S 753 mmHg 51%
    11:00 +26°C° 0 mm 2 m/S 753 mmHg 48%
    12:00 +27°C° 0 mm 3 m/S 752 mmHg 44%
    13:00 +27°C° 0 mm 2 m/S 752 mmHg 43%
    14:00 +28°C° 0 mm 2 m/S 752 mmHg 43%
    15:00 +28°C° 0 mm 2 m/S 751 mmHg 42%
    16:00 +27°C° 0 mm 2 m/S 751 mmHg 48%
    17:00 +25°C° 0 mm 2 m/S 751 mmHg 53%
    18:00 +23°C° 0 mm 2 m/S 751 mmHg 59%
    19:00 +21°C° 0 mm 2 m/S 751 mmHg 62%
    20:00 +21°C° 0 mm 1 m/S 751 mmHg 65%
    21:00 +19°C° 0 mm 1 m/S 751 mmHg 68%
    22:00 +19°C° 0 mm 1 m/S 750 mmHg 69%
    23:00 +19°C° 0 mm 1 m/S 750 mmHg 70%

    24 August, Samstag

    Zeit Temperatur Niederschläge Wind Luftdruck Luftfeuchtigkeit
    00:00 +18°C° 0 mm 1 m/S 750 mmHg 70%
    01:00 +18°C° 0 mm 1 m/S 750 mmHg 71%
    02:00 +18°C° 0 mm 1 m/S 749 mmHg 71%
    03:00 +18°C° 0 mm 1 m/S 749 mmHg 72%
    04:00 +18°C° 0 mm 1 m/S 749 mmHg 72%
    05:00 +18°C° 0 mm 1 m/S 749 mmHg 73%
    06:00 +19°C° 0 mm 1 m/S 749 mmHg 73%
    07:00 +20°C° 0 mm 2 m/S 749 mmHg 66%
    08:00 +23°C° 0 mm 2 m/S 749 mmHg 59%
    09:00 +25°C° 0 mm 2 m/S 749 mmHg 51%
    10:00 +27°C° 0 mm 2 m/S 749 mmHg 48%
    11:00 +28°C° 0 mm 2 m/S 748 mmHg 44%
    12:00 +29°C° 0 mm 2 m/S 748 mmHg 41%
    13:00 +29°C° 0 mm 2 m/S 748 mmHg 42%
    14:00 +29°C° 0 mm 2 m/S 747 mmHg 44%
    15:00 +29°C° 0 mm 2 m/S 747 mmHg 45%
    16:00 +28°C° 0 mm 1 m/S 747 mmHg 51%
    17:00 +26°C° 0 mm 1 m/S 747 mmHg 57%
    18:00 +25°C° 0 mm 1 m/S 747 mmHg 62%
    19:00 +24°C° 0 mm 1 m/S 747 mmHg 64%
    20:00 +23°C° 0 mm 1 m/S 747 mmHg 66%
    21:00 +22°C° 0 mm 1 m/S 747 mmHg 68%
    22:00 +21°C° 0 mm 1 m/S 747 mmHg 71%
    23:00 +21°C° 0 mm 1 m/S 747 mmHg 74%

    25 August, Sonntag

    Zeit Temperatur Niederschläge Wind Luftdruck Luftfeuchtigkeit
    00:00 +20°C° 0 mm 1 m/S 747 mmHg 77%
    01:00 +20°C° 0 mm 1 m/S 746 mmHg 79%
    02:00 +19°C° 0 mm 1 m/S 746 mmHg 81%
    03:00 +19°C° 0 mm 1 m/S 746 mmHg 83%
    04:00 +19°C° 0 mm 1 m/S 746 mmHg 82%
    05:00 +20°C° 0 mm 1 m/S 746 mmHg 81%
    06:00 +20°C° 0 mm 1 m/S 746 mmHg 80%
    07:00 +22°C° 0 mm 1 m/S 746 mmHg 73%
    08:00 +24°C° 0 mm 1 m/S 746 mmHg 65%
    09:00 +26°C° 0 mm 1 m/S 747 mmHg 58%
    10:00 +27°C° 0 mm 1 m/S 746 mmHg 54%
    11:00 +28°C° 0 mm 1 m/S 746 mmHg 51%
    12:00 +29°C° 0 mm 2 m/S 746 mmHg 47%
    13:00 +29°C° 0 mm 2 m/S 746 mmHg 46%
    14:00 +29°C° 0 mm 2 m/S 746 mmHg 45%
    15:00 +29°C° 0 mm 2 m/S 746 mmHg 43%
    16:00 +28°C° 0 mm 2 m/S 746 mmHg 49%
    17:00 +26°C° 0 mm 2 m/S 746 mmHg 55%
    18:00 +25°C° 0 mm 2 m/S 746 mmHg 61%
    19:00 +24°C° 0 mm 1 m/S 746 mmHg 63%
    20:00 +22°C° 0 mm 1 m/S 746 mmHg 65%
    21:00 +21°C° 0 mm 1 m/S 746 mmHg 68%
    22:00 +21°C° 0 mm 1 m/S 746 mmHg 67%
    23:00 +21°C° 0 mm 1 m/S 746 mmHg 67%
    Mehr zeigen